Meteo Giornale » Osservazioni meteo Italia » Torino-Caselle

ore: 18:50 - Osservazioni Meteo Torino-Caselle
Lat. 45° 13' N Lon. 7° 39' E Alt. 301 metri s.l.m.

molto_nuvoloso Europe/Rome

9 °C

Molto Nuvoloso

Temp. 24 Ore

3 °C

12 °C

Est/Nord-Est

9.3 Km/h

Dew point 3 °C

Umidità 66 %

Visibilità  10 Km

Il sole sorge alle ore 07:08

Il sole tramonta alle ore 18:15

Data e Ora Cielo e Fenomeni T °C DP °C Um. % Pres. hPa Vis. km Vento km/h
Oggi h: 18:50 molto_nuvoloso Molto Nuvoloso 9 3 66 1013 10 E/NE 9.3
Oggi h: 18:20 poco_nuvoloso Poco Nuvoloso 9 3 66 1013 10 E/NE 9.3
Oggi h: 17:50 sereno Sereno 10 2 57 1013 10 E/NE 7.4
Oggi h: 17:20 sereno Sereno 11 1 50 1013 10 E/NE 7.4
Oggi h: 16:50 sereno Sereno 12 0 43 1013 10 N 3.7
Oggi h: 16:20 sereno Sereno 12 -1 40 1013 10 E/NE 7.4
Oggi h: 15:50 sereno Sereno 12 1 46 1013 10 NE 7.4
Oggi h: 15:20 sereno Sereno 12 1 46 1014 10 E 7.4
Oggi h: 14:50 sereno Sereno 12 2 50 1014 10 E/SE 9.3
Oggi h: 14:20 sereno Sereno 11 3 57 1014 10 E 11.1
Oggi h: 13:50 sereno Sereno 11 2 53 1015 10 E 11.1
Oggi h: 13:20 sereno Sereno 11 2 53 1015 10 E 11.1
Oggi h: 12:50 sereno Sereno 10 2 57 1016 10 E 9.3
Oggi h: 12:20 sereno Sereno 10 1 53 1016 10 E 11.1
Oggi h: 11:50 sereno Sereno 10 1 53 1017 10 N 5.5
Oggi h: 11:20 sereno Sereno 9 1 57 1017 10 N 5.5
Oggi h: 10:50 sereno Sereno 8 1 61 1017 10 N 5.5
Oggi h: 10:20 sereno Sereno 8 1 61 1017 10 E 7.4
Oggi h: 09:50 sereno Sereno 7 1 65 1017 10 E 7.4
Oggi h: 09:20 sereno Sereno 7 -0 60 1017 10 N 5.5
Oggi h: 08:50 sereno Sereno 6 1 70 1017 10 N 1.8
Oggi h: 08:20 sereno Sereno 5 -1 65 1017 10 N 3.7
Oggi h: 07:50 sereno Sereno 3 -1 74 1017 10 N 3.7
Oggi h: 07:20 sereno Sereno 3 -1 74 1017 10 N 5.5
Oggi h: 06:50 sereno Sereno 4 -1 69 1017 10 N 5.5
Oggi h: 06:20 sereno Sereno 4 -1 69 1017 10 N 5.5
Oggi h: 05:50 sereno Sereno 4 -1 69 1017 10 N 5.5
Oggi h: 05:20 sereno Sereno 5 -1 65 1017 10 N 5.5
Oggi h: 04:50 sereno Sereno 4 -0 75 1017 10 N 1.8
Oggi h: 03:50 sereno Sereno 5 -1 65 1017 10 N 5.5
Oggi h: 03:20 sereno Sereno 5 -0 70 1017 10 N 5.5
Oggi h: 02:50 sereno Sereno 5 -0 70 1018 10 N 5.5
Oggi h: 02:20 sereno Sereno 5 -0 70 1018 10 O/NO 7.4
Oggi h: 01:50 sereno Sereno 6 -0 65 1018 10 N 1.8
Oggi h: 01:20 sereno Sereno 6 -1 60 1018 10 N/NO 9.3
Oggi h: 00:50 sereno Sereno 6 0 65 1018 10 N 5.5
Oggi h: 00:20 sereno Sereno 7 -0 60 1018 10 N 5.5
Ieri h: 23:50 sereno Sereno 8 -1 52 1018 10 N/NO 7.4
Ieri h: 22:50 sereno Sereno 8 -1 52 1018 10 N/NO 7.4
Ieri h: 22:20 sereno Sereno 8 1 61 1018 10 N 5.5
Ieri h: 21:50 sereno Sereno 8 0 56 1018 10 N/NO 9.3
Ieri h: 21:20 sereno Sereno 8 1 61 1018 10 N 9.3
Ieri h: 20:50 sereno Sereno 9 0 53 1017 10 N 5.5
Ieri h: 20:20 sereno Sereno 9 0 53 1017 10 N 5.5
Ieri h: 19:50 sereno Sereno 10 -0 49 1017 10 N 3.7
Ieri h: 19:20 sereno Sereno 10 -1 46 1017 10 N 3.7